STARLINK-33848, 63705

Orbit data source: Space-Track

STARLINK-33848, 63705 is a payload satellite owned by SpaceX/Seattle (US) in LEO that was launched on Mon, 28 Apr 2025 UTC via an FALCON 9 launch vehicle from the Air Force Western Test Range (AFWTR). Payload-class satellites include a variety of spacecraft equipped with specific instruments for various scientific and technological missions. These include communications satellites like Starlink; space stations such as the ISS; scientific satellites like the Hubble; Earth observation satellites from companies like Planet Labs, Umbra, and HawkEye 360; GPS; miniature CubeSats for education and research; and military/defense satellites.

Loading next visibility...
Identifier
63705, 2025-087J
Orbit
LEO
Country
Flag of USUS
Related business
Manufacturer
SpaceX/Seattle
Mission
Operational Commercial Communications
Bus & Motor
STARLINK V2MO, Unknown motor
Mass
575 kg wet, ~530 kg dry
Launch date (UTC)
2025-04-28 (8 months ago)
Launch vehicle
FALCON 9
Launch site
Air Force Western Test Range (AFWTR)
Object type
Payload
Rocket body
Debris
Shape & HBR
Box + 2 Pan, 17.7 m
Radar Cross Section
36.964 m², Large (>1 m²)

Expand to show TLE details & history
Last TLE update: 8 hours ago

TLE from 8 hours ago
0 STARLINK-33848
1 63705U 25087J   25346.96369323  .00053139  00000-0  17915-2 0  9990
2 63705  53.1611 262.2360 0001598  76.6912 283.4267 15.30234709 35919
Epoch: 2025-12-12T23:07Z
TLE epoch observation values (Epoch: 2025-12-12T23:07:43.095Z)
Latitude
0.00001°
Longitude
-166.59133°
Altitude
475.757 km
Speed
7.629 km/s
True Right ascension
17h 28m 56s
True Declination
0° 00' 00"
Sunlit
Object was in daylight at epoch
Visualization orbit readout
Latitude
Unknown
Longitude
Unknown
Altitude
Unknown
Speed
Unknown
Apparent Right ascension
Unknown
Apparent Declination
Unknown
Sunlit
N/A
Visualization observer readout
Local Sidereal Time
05:26:20
Azimuth
Unknown
Elevation
Unknown
Doppler factor
Unknown
Orbital elements
Apogee altitude
476.463 km
Perigee altitude
474.273 km
Semi-major axis
6,853.505 km
Eccentricity
0.00016
Inclination
53.1611°
RAAN
262.236°
Arg. of periapsis
76.6912°
True anomaly
283.40889°
Mean anomaly
283.4267°
Eccentric anomaly
283.41779°
Mean motion
3.82538 °/min
Orbital period
94.11 mins
BSTAR
0.0017915
Loading maneuver chart data...
Computing Atmospheric mass density...
Loading historical data...
Loading historical data...
Loading historical data...
Loading historical data...
Loading historical data...
Loading historical data...
Loading historical data...

Documentation

Showing up to 5 results
|